Regional Weather Roundup
Issued by NWS

Home | Current Version | Previous Version | Text Only | Print | Product List | Glossary On
Versions: 1 2 3 4 5 6 7 8 9 10 11 12 13 14 15 16 17 18 19 20 21 22 23 24 25 26 27 28 29 30 31 32 33 34 35 36 37 38 39 40 41 42 43 44 45 46 47 48 49 50
000
ASUS45 KABQ 211710
RWRNM
NEW MEXICO REGIONAL WEATHER ROUNDUP
NATIONAL WEATHER SERVICE ALBUQUERQUE NM
1000 AM MST SAT JAN 21 2017

NOTE: "FAIR" MEANS FEW OR NO CLOUDS BELOW 12,000 FEET AGL WITH NO
       SIGNIFICANT WEATHER OR OBSTRUCTIONS TO VISION.

      THIS PRODUCT IS RELEASED AS TWO VERSIONS.  ONE VERSION NEAR
      THE TOP OF THE HOUR CONTAINING PRELIMINARY DATA FROM ALBUQUERQUE
      AND OTHER STATIONS.  A FINAL VERSION WITH ADDITIONAL DATA IS
      ISSUED ABOUT 10 MINUTES AFTER THE HOUR.

NMZ501-503-504-510>518-211800-
NORTHWEST PLATEAU/NORTHCENTRAL MOUNTAINS

CITY           SKY/WX    TMP DP  RH WIND       PRES   REMARKS
FARMINGTON     FLURRIES  33  29  85 W15G21    29.42R WCI  23
LOS ALAMOS     CLOUDY    31  26  80 S13       29.44R WCI  21
SANTA FE       CLOUDY    32  29  88 W12       29.45R WCI  23
TAOS           CLOUDY    32  23  69 SW16      29.40R WCI  21
ANGEL FIRE     CLOUDY    29  24  79 W10       29.39S WCI  20

$$
NMZ402-403-502-505>509-211800-
WESTCENTRAL MOUNTAINS/SOUTHWEST MOUNTAINS

CITY           SKY/WX    TMP DP  RH WIND       PRES   REMARKS
GALLUP         LGT SNOW  30  26  85 SW21G30   29.52R FOG     WCI  17
GRANTS         FAIR      33  23  65 W22G37    29.49R WCI  21
SILVER CITY    FAIR      39  31  73 W23G43    29.64R WCI  28

$$
NMZ407-409-411-412-211800-
SOUTHERN DESERTS

CITY           SKY/WX    TMP DP  RH WIND       PRES   REMARKS
DEMING         FAIR      45  35  68 W24G40    29.64R
LAS CRUCES     FAIR      44  36  72 W26G33    29.64S
HOLLOMAN AFB   CLOUDY    45  34  66 W23G30    29.62R
ALAMOGORDO     PTSUNNY   45  36  70 SW14G20   29.62R
T OR C         FAIR      44  32  62 SW9       29.56R

$$
NMZ519>523-211800-
CENTRAL VALLEYS/CENTRAL HIGHLANDS

CITY           SKY/WX    TMP DP  RH WIND       PRES   REMARKS
ALBUQUERQUE    PTSUNNY   38  32  79 S9G18     29.52R WCI  31
DOUBLE EAGLE   PTSUNNY   34  30  86 SE13      29.51R WCI  25
MORIARTY ARPT  FAIR      35  28  76 W16       29.50R WCI  25
CLINES CORNERS CLOUDY    30  26  85 W22G31    29.46R WCI  17
BELEN          PTSUNNY   42  32  66 SW7       29.53R
SOCORRO        FAIR      41  36  81 SE8       29.54R

$$
NMZ524>526-539-540-211800-
SOUTHCENTRAL MOUNTAINS

CITY           SKY/WX    TMP DP  RH WIND       PRES   REMARKS
RUIDOSO        FAIR      36  25  64 W26G33    29.52R WCI  23

$$
NMZ527>531-211800-
NORTHEAST HIGHLANDS/NORTHEAST PLAINS

CITY           SKY/WX    TMP DP  RH WIND       PRES   REMARKS
LAS VEGAS      PTSUNNY   35  29  78 SW22      29.37F WCI  23
RATON          PTSUNNY   33  25  72 NE6       29.36F WCI  28
CLAYTON        CLOUDY    42  36  79 SW15      29.36S

$$
NMZ532>537-211800-
EASTCENTRAL PLAINS

CITY           SKY/WX    TMP DP  RH WIND       PRES   REMARKS
TUCUMCARI      LGT RAIN  43  40  89 SW14      29.42R
CANNON AFB     FAIR      47  44  89 W15       29.43F
CLOVIS AIRPORT FAIR      48  37  66 SW16      29.43F

$$
NMZ028-029-538-211800-
SOUTHEAST PLAINS

CITY           SKY/WX    TMP DP  RH WIND       PRES   REMARKS
ROSWELL        FAIR      55  33  43 SW28G36   29.44F
ARTESIA        FAIR      50  36  57 SW24G39   29.52R
CARLSBAD       FAIR      53  36  52 SW31G39   29.54R
HOBBS          SUNNY     54  39  58 SW18G28   29.53F


$$




USA.gov is the U.S. government's official web portal to all federal, state and local government web resources and services.